Location: Unspecified
(0.0000°N, 0.0000°E)
Time: 12:55:28
(UTC+00:00)

RS-5 - Visible Passes

Search period start: 26 September 2022 00:00
Search period end: 06 October 2022 00:00
Orbit: 1646 x 1668 km, 83.0° (Epoch: 25 September)

Date Brightness Start Highest point End Pass type
(mag) Time Alt. Az. Time Alt. Az. Time Alt. Az.
26 Sep ? 05:15:41 10° SE 05:23:04 25° E 05:30:23 10° NE visible
26 Sep ? 18:10:47 10° N 18:20:14 72° E 18:29:41 10° S visible
26 Sep ? 20:16:13 10° WNW 20:20:12 13° W 20:24:12 10° WSW visible
27 Sep ? 05:10:03 10° SE 05:17:28 26° E 05:24:49 10° NE visible
27 Sep ? 18:05:10 10° N 18:14:38 72° E 18:24:04 10° S visible
27 Sep ? 20:10:42 10° WNW 20:14:35 13° W 20:18:30 10° WSW visible
28 Sep ? 05:04:24 10° SE 05:11:51 26° E 05:19:14 10° NE visible
28 Sep ? 17:59:34 10° N 18:09:01 73° E 18:18:27 10° S visible
28 Sep ? 20:05:12 10° WNW 20:08:59 13° W 20:12:47 10° WSW visible
29 Sep ? 04:58:46 10° SE 05:06:15 26° E 05:13:40 10° NE visible
29 Sep ? 17:53:57 10° N 18:03:25 73° E 18:12:52 10° S visible
29 Sep ? 19:59:41 10° WNW 20:03:22 13° W 20:07:05 10° WSW visible
30 Sep ? 04:53:07 10° SE 05:00:38 26° E 05:08:06 10° NE visible
30 Sep ? 19:54:11 10° WNW 19:57:46 13° W 20:01:21 10° WSW visible
01 Oct ? 04:47:29 10° SE 04:55:02 26° E 05:02:32 10° NE visible
01 Oct ? 19:48:42 10° WNW 19:52:09 12° W 19:55:38 10° WSW visible
02 Oct ? 04:41:50 10° SE 04:49:26 27° E 04:56:58 10° NE visible
02 Oct ? 19:43:12 10° WNW 19:46:33 12° W 19:49:55 10° WSW visible
03 Oct ? 04:36:12 10° SE 04:43:49 27° E 04:51:23 10° NE visible
03 Oct ? 19:37:43 10° WNW 19:40:57 12° W 19:44:12 10° WSW visible
04 Oct ? 04:30:34 10° SSE 04:38:13 27° E 04:45:49 10° NE visible
04 Oct ? 19:32:13 10° WNW 19:35:20 12° W 19:38:28 10° WSW visible
05 Oct ? 04:24:55 10° SSE 04:32:37 27° E 04:40:15 10° NE visible
05 Oct ? 19:26:45 10° WNW 19:29:44 12° W 19:32:43 10° WSW visible
